Time,TemperatureF,DewpointF,PressureIn,WindDirection,WindDirectionDegrees,WindSpeedMPH,WindSpeedGustMPH,Humidity,HourlyPrecipIn,Conditions,Clouds,dailyrainin,SolarRadiationWatts/m^2,SoftwareType,DateUTC
2013-07-04 00:00:00,73.0,67.5,30.22,NNW,338,0.0,6.0,83,0.00,,,0.00,0000,Weather View 32 v70,2013-07-04 04:00:00,
2013-07-04 00:05:00,73.0,67.5,30.22,West,270,0.0,6.0,83,0.00,,,0.00,0008,Weather View 32 v70,2013-07-04 04:05:00,
2013-07-04 00:10:00,73.0,67.5,30.22,West,270,0.0,6.0,83,0.00,,,0.00,0000,Weather View 32 v70,2013-07-04 04:10:00,
2013-07-04 00:15:00,72.9,67.4,30.22,WNW,293,0.0,5.0,83,0.00,,,0.00,0000,Weather View 32 v70,2013-07-04 04:15:00,
2013-07-04 00:25:00,72.9,67.4,30.22,WNW,293,0.0,3.0,83,0.00,,,0.00,0000,Weather View 32 v70,2013-07-04 04:25:00,
2013-07-04 00:30:00,72.8,67.3,30.22,West,270,0.0,6.0,83,0.00,,,0.00,0000,Weather View 32 v70,2013-07-04 04:30:00,
2013-07-04 00:40:00,72.8,67.3,30.22,West,270,0.0,6.0,83,0.00,,,0.00,0000,Weather View 32 v70,2013-07-04 04:40:00,
2013-07-04 00:45:00,72.8,67.3,30.22,WNW,293,0.0,6.0,83,0.00,,,0.00,0000,Weather View 32 v70,2013-07-04 04:45:00,
2013-07-04 00:50:00,72.8,67.3,30.22,WNW,293,0.0,8.0,83,0.00,,,0.00,0000,Weather View 32 v70,2013-07-04 04:50:00,
2013-07-04 00:55:00,72.8,67.6,30.21,West,270,0.0,8.0,84,0.00,,,0.00,0016,Weather View 32 v70,2013-07-04 04:55:00,
2013-07-04 01:00:00,72.8,67.3,30.21,WNW,293,0.0,8.0,83,0.00,,,0.00,0000,Weather View 32 v70,2013-07-04 05:00:00,
2013-07-04 01:05:00,72.8,67.6,30.21,WNW,293,0.0,8.0,84,0.00,,,0.00,0000,Weather View 32 v70,2013-07-04 05:05:00,
2013-07-04 01:15:00,72.6,67.2,30.21,NW,315,0.0,8.0,83,0.00,,,0.00,0000,Weather View 32 v70,2013-07-04 05:15:00,
2013-07-04 01:25:00,72.6,67.2,30.21,WNW,293,0.0,8.0,83,0.00,,,0.00,0000,Weather View 32 v70,2013-07-04 05:25:00,
2013-07-04 01:30:00,72.5,67.0,30.21,NW,315,0.0,8.0,83,0.00,,,0.00,0000,Weather View 32 v70,2013-07-04 05:30:00,
2013-07-04 01:40:00,72.5,67.0,30.21,WNW,293,0.0,8.0,83,0.00,,,0.00,0000,Weather View 32 v70,2013-07-04 05:40:00,
2013-07-04 01:50:00,72.5,67.0,30.21,NW,315,0.0,13.0,83,0.00,,,0.00,0000,Weather View 32 v70,2013-07-04 05:50:00,
2013-07-04 01:55:00,72.5,67.0,30.21,NW,315,0.0,13.0,83,0.00,,,0.00,0000,Weather View 32 v70,2013-07-04 05:55:00,
2013-07-04 02:05:00,72.4,66.9,30.21,WNW,293,0.0,13.0,83,0.00,,,0.00,0000,Weather View 32 v70,2013-07-04 06:05:00,
2013-07-04 02:15:00,72.3,66.8,30.21,WNW,293,0.0,13.0,83,0.00,,,0.00,0016,Weather View 32 v70,2013-07-04 06:15:00,
2013-07-04 02:20:00,72.3,66.8,30.20,WNW,293,0.0,13.0,83,0.00,,,0.00,0000,Weather View 32 v70,2013-07-04 06:20:00,
2013-07-04 02:25:00,72.1,66.6,30.21,WNW,293,0.0,13.0,83,0.00,,,0.00,0000,Weather View 32 v70,2013-07-04 06:25:00,
2013-07-04 02:30:00,72.1,66.6,30.20,WNW,293,0.0,13.0,83,0.00,,,0.00,0000,Weather View 32 v70,2013-07-04 06:30:00,
2013-07-04 02:40:00,72.0,66.5,30.21,WNW,293,0.0,13.0,83,0.00,,,0.00,0000,Weather View 32 v70,2013-07-04 06:40:00,
2013-07-04 02:50:00,72.0,66.5,30.20,WNW,293,0.0,4.0,83,0.00,,,0.00,0000,Weather View 32 v70,2013-07-04 06:50:00,
2013-07-04 02:55:00,72.0,66.5,30.21,WNW,293,0.0,3.0,83,0.00,,,0.00,0016,Weather View 32 v70,2013-07-04 06:55:00,
2013-07-04 03:00:00,71.9,66.4,30.21,WSW,248,0.0,1.0,83,0.00,,,0.00,0000,Weather View 32 v70,2013-07-04 07:00:00,
2013-07-04 03:05:00,71.9,66.7,30.21,WNW,293,0.0,1.0,84,0.00,,,0.00,0000,Weather View 32 v70,2013-07-04 07:05:00,
2013-07-04 03:15:00,72.0,66.9,30.20,WNW,293,0.0,1.0,84,0.00,,,0.00,0000,Weather View 32 v70,2013-07-04 07:15:00,
2013-07-04 03:25:00,72.0,66.9,30.21,WNW,293,0.0,2.0,84,0.00,,,0.00,0000,Weather View 32 v70,2013-07-04 07:25:00,
2013-07-04 03:30:00,72.0,66.9,30.20,WNW,293,0.0,4.0,84,0.00,,,0.00,0000,Weather View 32 v70,2013-07-04 07:30:00,
2013-07-04 03:35:00,72.0,66.9,30.20,WNW,293,0.0,4.0,84,0.00,,,0.00,0000,Weather View 32 v70,2013-07-04 07:35:00,
2013-07-04 03:40:00,72.0,66.9,30.20,WNW,293,0.0,4.0,84,0.00,,,0.00,0000,Weather View 32 v70,2013-07-04 07:40:00,
2013-07-04 03:50:00,71.9,66.7,30.20,WNW,293,0.0,4.0,84,0.00,,,0.00,0008,Weather View 32 v70,2013-07-04 07:50:00,
2013-07-04 03:55:00,72.0,66.9,30.20,WNW,293,0.0,4.0,84,0.00,,,0.00,0000,Weather View 32 v70,2013-07-04 07:55:00,
2013-07-04 04:05:00,72.1,67.3,30.20,WNW,293,0.0,4.0,85,0.00,,,0.00,0000,Weather View 32 v70,2013-07-04 08:05:00,
2013-07-04 04:15:00,72.2,67.4,30.21,WNW,293,0.0,4.0,85,0.00,,,0.00,0000,Weather View 32 v70,2013-07-04 08:15:00,
2013-07-04 04:25:00,72.3,67.2,30.21,WNW,293,0.0,4.0,84,0.00,,,0.00,0000,Weather View 32 v70,2013-07-04 08:25:00,
2013-07-04 04:35:00,72.3,67.2,30.21,NNW,338,0.0,4.0,84,0.00,,,0.00,0000,Weather View 32 v70,2013-07-04 08:35:00,
2013-07-04 04:45:00,72.4,67.3,30.21,NW,315,0.0,4.0,84,0.00,,,0.00,0000,Weather View 32 v70,2013-07-04 08:45:00,
2013-07-04 04:50:00,72.5,67.4,30.21,WNW,293,0.0,4.0,84,0.00,,,0.00,0000,Weather View 32 v70,2013-07-04 08:50:00,
2013-07-04 04:55:00,72.5,67.7,30.22,WNW,293,0.0,4.0,85,0.00,,,0.00,0000,Weather View 32 v70,2013-07-04 08:55:00,
2013-07-04 05:05:00,72.6,67.9,30.22,WNW,293,0.0,4.0,85,0.00,,,0.00,0000,Weather View 32 v70,2013-07-04 09:05:00,
2013-07-04 05:15:00,72.6,67.5,30.22,WNW,293,0.0,4.0,84,0.00,,,0.00,0000,Weather View 32 v70,2013-07-04 09:15:00,
2013-07-04 05:20:00,72.8,67.6,30.22,WNW,293,0.0,4.0,84,0.00,,,0.00,0000,Weather View 32 v70,2013-07-04 09:20:00,
2013-07-04 05:25:00,72.6,67.5,30.22,WNW,293,0.0,4.0,84,0.00,,,0.00,0008,Weather View 32 v70,2013-07-04 09:25:00,
2013-07-04 05:30:00,72.6,67.5,30.22,WNW,293,0.0,4.0,84,0.00,,,0.00,0008,Weather View 32 v70,2013-07-04 09:30:00,
2013-07-04 05:40:00,72.8,67.6,30.22,West,270,0.0,4.0,84,0.00,,,0.00,0008,Weather View 32 v70,2013-07-04 09:40:00,
2013-07-04 05:50:00,72.9,67.7,30.22,WNW,293,0.0,4.0,84,0.00,,,0.00,0024,Weather View 32 v70,2013-07-04 09:50:00,
2013-07-04 05:55:00,72.9,67.7,30.22,WNW,293,0.0,4.0,84,0.00,,,0.00,0032,Weather View 32 v70,2013-07-04 09:55:00,
2013-07-04 06:05:00,73.0,67.8,30.22,WNW,293,0.0,3.0,84,0.00,,,0.00,0016,Weather View 32 v70,2013-07-04 10:05:00,
2013-07-04 06:15:00,73.1,67.9,30.23,WNW,293,0.0,3.0,84,0.00,,,0.00,0040,Weather View 32 v70,2013-07-04 10:15:00,
2013-07-04 06:20:00,73.2,68.1,30.22,NW,315,0.0,3.0,84,0.00,,,0.00,0016,Weather View 32 v70,2013-07-04 10:20:00,
2013-07-04 06:25:00,73.2,68.1,30.23,NW,315,0.0,3.0,84,0.00,,,0.00,0032,Weather View 32 v70,2013-07-04 10:25:00,
2013-07-04 06:35:00,73.3,68.2,30.23,WNW,293,0.0,3.0,84,0.00,,,0.00,0024,Weather View 32 v70,2013-07-04 10:35:00,
2013-07-04 06:40:00,73.4,68.6,30.22,WSW,248,0.0,3.0,85,0.00,,,0.00,0048,Weather View 32 v70,2013-07-04 10:40:00,
2013-07-04 06:45:00,73.4,68.6,30.23,NW,315,0.0,3.0,85,0.00,,,0.00,0064,Weather View 32 v70,2013-07-04 10:45:00,
2013-07-04 06:54:00,73.5,68.4,30.23,West,270,0.0,3.0,84,0.00,,,0.00,0056,Weather View 32 v70,2013-07-04 10:54:00,
2013-07-04 07:00:00,73.7,68.5,30.23,NW,315,0.0,3.0,84,0.00,,,0.00,0048,Weather View 32 v70,2013-07-04 11:00:00,
2013-07-04 07:10:00,73.9,68.7,30.23,NW,315,0.0,3.0,84,0.00,,,0.00,0056,Weather View 32 v70,2013-07-04 11:10:00,
2013-07-04 07:15:00,73.9,68.7,30.24,NW,315,0.0,3.0,84,0.00,,,0.00,0064,Weather View 32 v70,2013-07-04 11:15:00,
2013-07-04 07:20:00,74.0,68.8,30.24,SSW,203,0.0,3.0,84,0.00,,,0.00,0064,Weather View 32 v70,2013-07-04 11:20:00,
2013-07-04 07:30:00,74.1,68.9,30.24,WSW,248,0.0,4.0,84,0.00,,,0.00,0088,Weather View 32 v70,2013-07-04 11:30:00,
2013-07-04 07:40:00,74.2,69.1,30.24,NW,315,0.0,4.0,84,0.00,,,0.00,0120,Weather View 32 v70,2013-07-04 11:40:00,
2013-07-04 07:50:00,74.4,69.3,30.24,WNW,293,0.0,5.0,84,0.00,,,0.00,0160,Weather View 32 v70,2013-07-04 11:50:00,
2013-07-04 08:00:00,74.7,69.1,30.24,West,270,0.0,5.0,83,0.00,,,0.00,0088,Weather View 32 v70,2013-07-04 12:00:00,
2013-07-04 08:05:00,74.8,69.2,30.24,WSW,248,0.0,5.0,83,0.00,,,0.00,0136,Weather View 32 v70,2013-07-04 12:05:00,
2013-07-04 08:15:00,74.7,69.1,30.25,West,270,0.0,6.0,83,0.00,,,0.00,0120,Weather View 32 v70,2013-07-04 12:15:00,
2013-07-04 08:20:00,74.6,69.0,30.24,NW,315,0.0,6.0,83,0.00,,,0.00,0096,Weather View 32 v70,2013-07-04 12:20:00,
2013-07-04 08:25:00,74.7,69.5,30.24,WNW,293,0.0,6.0,84,0.00,,,0.00,0152,Weather View 32 v70,2013-07-04 12:25:00,
2013-07-04 08:35:00,75.1,69.6,30.24,NW,315,0.0,8.0,83,0.00,,,0.00,0216,Weather View 32 v70,2013-07-04 12:35:00,
2013-07-04 08:40:00,75.2,69.7,30.24,West,270,0.0,8.0,83,0.00,,,0.00,0152,Weather View 32 v70,2013-07-04 12:40:00,
2013-07-04 08:45:00,75.6,70.0,30.24,West,270,0.0,8.0,83,0.00,,,0.00,0264,Weather View 32 v70,2013-07-04 12:45:00,
2013-07-04 08:50:00,75.8,69.9,30.24,WNW,293,0.0,10.0,82,0.00,,,0.00,0448,Weather View 32 v70,2013-07-04 12:50:00,
2013-07-04 08:55:00,76.4,70.1,30.24,West,270,2.0,10.0,81,0.00,,,0.00,0336,Weather View 32 v70,2013-07-04 12:55:00,
2013-07-04 09:00:00,76.7,70.4,30.24,NNW,338,0.0,10.0,81,0.00,,,0.00,0408,Weather View 32 v70,2013-07-04 13:00:00,
2013-07-04 09:05:00,77.4,70.7,30.24,SW,225,2.0,10.0,80,0.00,,,0.00,0664,Weather View 32 v70,2013-07-04 13:05:00,
2013-07-04 09:15:00,78.4,70.9,30.24,WSW,248,2.0,10.0,78,0.00,,,0.00,0680,Weather View 32 v70,2013-07-04 13:15:00,
2013-07-04 09:20:00,79.2,71.3,30.23,WSW,248,0.0,10.0,77,0.00,,,0.00,0280,Weather View 32 v70,2013-07-04 13:20:00,
2013-07-04 09:25:00,79.1,70.8,30.24,West,270,0.0,10.0,76,0.00,,,0.00,0824,Weather View 32 v70,2013-07-04 13:25:00,
2013-07-04 09:30:00,79.4,71.1,30.24,WNW,293,0.0,10.0,76,0.00,,,0.00,0240,Weather View 32 v70,2013-07-04 13:30:00,
2013-07-04 09:40:00,80.1,71.4,30.24,ESE,113,2.0,10.0,75,0.00,,,0.00,0760,Weather View 32 v70,2013-07-04 13:40:00,
2013-07-04 09:45:00,80.7,71.2,30.23,West,270,0.0,10.0,73,0.00,,,0.00,0328,Weather View 32 v70,2013-07-04 13:45:00,
2013-07-04 09:50:00,80.7,71.2,30.24,SW,225,2.0,9.0,73,0.00,,,0.00,0680,Weather View 32 v70,2013-07-04 13:50:00,
2013-07-04 09:55:00,81.2,71.7,30.23,WSW,248,0.0,9.0,73,0.00,,,0.00,0752,Weather View 32 v70,2013-07-04 13:55:00,
2013-07-04 10:00:00,81.3,71.4,30.23,West,270,0.0,9.0,72,0.00,,,0.00,0752,Weather View 32 v70,2013-07-04 14:00:00,
2013-07-04 10:10:00,81.6,71.3,30.23,WNW,293,2.0,9.0,71,0.00,,,0.00,0296,Weather View 32 v70,2013-07-04 14:10:00,
2013-07-04 10:15:00,81.5,70.7,30.24,South,180,0.0,8.0,70,0.00,,,0.00,0312,Weather View 32 v70,2013-07-04 14:15:00,
2013-07-04 10:25:00,82.2,71.8,30.23,WNW,293,2.0,8.0,71,0.00,,,0.00,0744,Weather View 32 v70,2013-07-04 14:25:00,
2013-07-04 10:35:00,82.3,72.3,30.23,WSW,248,2.0,8.0,72,0.00,,,0.00,0816,Weather View 32 v70,2013-07-04 14:35:00,
2013-07-04 10:40:00,82.7,71.8,30.23,West,270,0.0,8.0,70,0.00,,,0.00,0784,Weather View 32 v70,2013-07-04 14:40:00,
2013-07-04 10:50:00,83.1,72.3,30.23,SW,225,0.0,8.0,70,0.00,,,0.00,0184,Weather View 32 v70,2013-07-04 14:50:00,
2013-07-04 10:56:00,82.9,71.6,30.22,NW,315,0.0,8.0,69,0.00,,,0.00,0344,Weather View 32 v70,2013-07-04 14:56:00,
2013-07-04 11:05:00,82.5,71.7,30.23,NNW,338,0.0,8.0,70,0.00,,,0.00,0136,Weather View 32 v70,2013-07-04 15:05:00,
2013-07-04 11:10:00,82.5,71.7,30.22,WSW,248,0.0,8.0,70,0.00,,,0.00,0896,Weather View 32 v70,2013-07-04 15:10:00,
2013-07-04 11:15:00,82.9,72.5,30.22,WSW,248,0.0,8.0,71,0.00,,,0.00,0816,Weather View 32 v70,2013-07-04 15:15:00,
2013-07-04 11:25:00,83.4,72.2,30.22,West,270,0.0,8.0,69,0.00,,,0.00,0832,Weather View 32 v70,2013-07-04 15:25:00,
2013-07-04 11:30:00,83.6,72.3,30.22,WNW,293,0.0,7.0,69,0.00,,,0.00,0488,Weather View 32 v70,2013-07-04 15:30:00,
2013-07-04 11:40:00,83.7,72.4,30.22,SSW,203,5.0,8.0,69,0.00,,,0.00,0856,Weather View 32 v70,2013-07-04 15:40:00,
2013-07-04 11:50:00,84.0,71.8,30.22,NW,315,2.0,8.0,67,0.00,,,0.00,0880,Weather View 32 v70,2013-07-04 15:50:00,
2013-07-04 11:55:00,84.2,72.0,30.21,WNW,293,0.0,8.0,67,0.00,,,0.00,0872,Weather View 32 v70,2013-07-04 15:55:00,
2013-07-04 12:00:00,83.9,70.8,30.21,WSW,248,3.0,8.0,65,0.00,,,0.00,0880,Weather View 32 v70,2013-07-04 16:00:00,
2013-07-04 12:05:00,83.8,71.6,30.21,WNW,293,0.0,8.0,67,0.00,,,0.00,0872,Weather View 32 v70,2013-07-04 16:05:00,
2013-07-04 12:15:00,84.2,72.5,30.21,WNW,293,0.0,10.0,68,0.00,,,0.00,0896,Weather View 32 v70,2013-07-04 16:15:00,
2013-07-04 12:25:00,84.0,71.8,30.21,West,270,5.0,10.0,67,0.00,,,0.00,0896,Weather View 32 v70,2013-07-04 16:25:00,
2013-07-04 12:30:00,83.8,71.1,30.21,WSW,248,0.0,10.0,66,0.00,,,0.00,0896,Weather View 32 v70,2013-07-04 16:30:00,
2013-07-04 12:40:00,84.3,71.2,30.21,SSW,203,0.0,10.0,65,0.00,,,0.00,0872,Weather View 32 v70,2013-07-04 16:40:00,
2013-07-04 12:45:00,84.9,72.2,30.20,WSW,248,0.0,10.0,66,0.00,,,0.00,0896,Weather View 32 v70,2013-07-04 16:45:00,
2013-07-04 12:50:00,84.7,70.6,30.21,NNW,338,1.0,11.0,63,0.00,,,0.00,0888,Weather View 32 v70,2013-07-04 16:50:00,
2013-07-04 12:55:00,84.6,71.5,30.21,SSE,158,4.0,11.0,65,0.00,,,0.00,0880,Weather View 32 v70,2013-07-04 16:55:00,
2013-07-04 13:05:00,84.8,71.2,30.20,NW,315,7.0,14.0,64,0.00,,,0.00,0872,Weather View 32 v70,2013-07-04 17:05:00,
2013-07-04 13:10:00,84.7,71.5,30.19,WSW,248,3.0,14.0,65,0.00,,,0.00,0856,Weather View 32 v70,2013-07-04 17:10:00,
2013-07-04 13:20:00,84.9,71.3,30.20,WNW,293,2.0,14.0,64,0.00,,,0.00,0896,Weather View 32 v70,2013-07-04 17:20:00,
2013-07-04 13:25:00,85.1,72.0,30.20,NW,315,2.0,14.0,65,0.00,,,0.00,0888,Weather View 32 v70,2013-07-04 17:25:00,
2013-07-04 13:30:00,85.0,71.4,30.19,WNW,293,1.0,14.0,64,0.00,,,0.00,0896,Weather View 32 v70,2013-07-04 17:30:00,
2013-07-04 13:40:00,85.4,72.2,30.19,WSW,248,2.0,14.0,65,0.00,,,0.00,0904,Weather View 32 v70,2013-07-04 17:40:00,
2013-07-04 13:45:00,85.7,71.6,30.20,SE,135,0.0,14.0,63,0.00,,,0.00,0864,Weather View 32 v70,2013-07-04 17:45:00,
2013-07-04 13:55:00,85.7,71.6,30.19,North,0,6.0,14.0,63,0.00,,,0.00,0832,Weather View 32 v70,2013-07-04 17:55:00,
2013-07-04 14:00:00,85.2,70.2,30.19,SE,135,2.0,18.0,61,0.00,,,0.00,0152,Weather View 32 v70,2013-07-04 18:00:00,
2013-07-04 14:10:00,85.0,71.4,30.19,SSW,203,1.0,18.0,64,0.00,,,0.00,0824,Weather View 32 v70,2013-07-04 18:10:00,
2013-07-04 14:20:00,85.0,71.0,30.18,West,270,10.0,18.0,63,0.00,,,0.00,0824,Weather View 32 v70,2013-07-04 18:20:00,
2013-07-04 14:30:00,85.2,71.2,30.19,WNW,293,0.0,22.0,63,0.00,,,0.00,0800,Weather View 32 v70,2013-07-04 18:30:00,
2013-07-04 14:35:00,85.5,72.3,30.19,WNW,293,3.0,22.0,65,0.00,,,0.00,0824,Weather View 32 v70,2013-07-04 18:35:00,
2013-07-04 14:45:00,85.4,71.3,30.18,ENE,68,0.0,22.0,63,0.00,,,0.00,0768,Weather View 32 v70,2013-07-04 18:45:00,
2013-07-04 14:50:00,85.1,70.1,30.17,West,270,2.0,22.0,61,0.00,,,0.00,0792,Weather View 32 v70,2013-07-04 18:50:00,
2013-07-04 14:58:00,85.5,72.3,30.18,WNW,293,0.0,22.0,65,0.00,,,0.00,0720,Weather View 32 v70,2013-07-04 18:58:00,
2013-07-04 15:05:00,85.8,71.7,30.18,WNW,293,3.0,22.0,63,0.00,,,0.00,0752,Weather View 32 v70,2013-07-04 19:05:00,
2013-07-04 15:10:00,85.7,71.1,30.17,SW,225,1.0,22.0,62,0.00,,,0.00,0752,Weather View 32 v70,2013-07-04 19:10:00,
2013-07-04 15:20:00,85.9,72.7,30.17,WNW,293,0.0,22.0,65,0.00,,,0.00,0696,Weather View 32 v70,2013-07-04 19:20:00,
2013-07-04 15:25:00,85.9,72.3,30.17,WNW,293,0.0,12.0,64,0.00,,,0.00,0704,Weather View 32 v70,2013-07-04 19:25:00,
2013-07-04 15:30:00,86.0,71.9,30.17,West,270,0.0,12.0,63,0.00,,,0.00,0696,Weather View 32 v70,2013-07-04 19:30:00,
2013-07-04 15:40:00,86.5,70.9,30.16,WNW,293,0.0,12.0,60,0.00,,,0.00,0672,Weather View 32 v70,2013-07-04 19:40:00,
2013-07-04 15:45:00,86.0,71.9,30.15,WNW,293,0.0,13.0,63,0.00,,,0.00,0664,Weather View 32 v70,2013-07-04 19:45:00,
2013-07-04 15:50:00,86.0,71.9,30.16,West,270,8.0,13.0,63,0.00,,,0.00,0688,Weather View 32 v70,2013-07-04 19:50:00,
2013-07-04 15:59:00,86.0,71.9,30.16,SSW,203,3.0,13.0,63,0.00,,,0.00,0664,Weather View 32 v70,2013-07-04 19:59:00,
2013-07-04 16:05:00,86.0,70.9,30.16,WNW,293,0.0,13.0,61,0.00,,,0.00,0624,Weather View 32 v70,2013-07-04 20:05:00,
2013-07-04 16:15:00,86.0,72.4,30.16,WNW,293,0.0,13.0,64,0.00,,,0.00,0592,Weather View 32 v70,2013-07-04 20:15:00,
2013-07-04 16:20:00,86.0,72.8,30.16,West,270,0.0,13.0,65,0.00,,,0.00,0616,Weather View 32 v70,2013-07-04 20:20:00,
2013-07-04 16:25:00,85.5,70.9,30.16,WNW,293,0.0,13.0,62,0.00,,,0.00,0584,Weather View 32 v70,2013-07-04 20:25:00,
2013-07-04 16:30:00,85.1,72.0,30.16,WNW,293,0.0,13.0,65,0.00,,,0.00,0544,Weather View 32 v70,2013-07-04 20:30:00,
2013-07-04 16:40:00,85.0,71.9,30.16,West,270,0.0,13.0,65,0.00,,,0.00,0536,Weather View 32 v70,2013-07-04 20:40:00,
2013-07-04 16:45:00,84.7,72.4,30.15,North,0,0.0,12.0,67,0.00,,,0.00,0496,Weather View 32 v70,2013-07-04 20:45:00,
2013-07-04 16:50:00,84.5,71.8,30.16,West,270,3.0,12.0,66,0.00,,,0.00,0496,Weather View 32 v70,2013-07-04 20:50:00,
2013-07-04 17:00:00,84.9,72.7,30.16,WNW,293,0.0,12.0,67,0.00,,,0.00,0520,Weather View 32 v70,2013-07-04 21:00:00,
2013-07-04 17:05:00,84.1,71.9,30.15,NNW,338,3.0,12.0,67,0.00,,,0.00,0344,Weather View 32 v70,2013-07-04 21:05:00,
2013-07-04 17:10:00,83.3,71.6,30.16,WNW,293,4.0,11.0,68,0.00,,,0.00,0080,Weather View 32 v70,2013-07-04 21:10:00,
2013-07-04 17:20:00,82.4,71.2,30.16,SW,225,1.0,11.0,69,0.00,,,0.00,0408,Weather View 32 v70,2013-07-04 21:20:00,
2013-07-04 17:30:00,82.1,70.9,30.15,WNW,293,0.0,10.0,69,0.00,,,0.00,0376,Weather View 32 v70,2013-07-04 21:30:00,
2013-07-04 17:35:00,81.9,70.7,30.15,SSW,203,2.0,10.0,69,0.00,,,0.00,0320,Weather View 32 v70,2013-07-04 21:35:00,
2013-07-04 17:40:00,81.5,70.7,30.15,SW,225,0.0,10.0,70,0.00,,,0.00,0064,Weather View 32 v70,2013-07-04 21:40:00,
2013-07-04 17:45:00,81.1,70.3,30.15,WSW,248,0.0,10.0,70,0.00,,,0.00,0056,Weather View 32 v70,2013-07-04 21:45:00,
2013-07-04 17:55:00,80.4,70.1,30.15,WNW,293,0.0,10.0,71,0.00,,,0.00,0056,Weather View 32 v70,2013-07-04 21:55:00,
2013-07-04 18:00:00,80.4,70.1,30.15,WSW,248,0.0,10.0,71,0.00,,,0.00,0088,Weather View 32 v70,2013-07-04 22:00:00,
2013-07-04 18:10:00,80.2,69.9,30.15,SE,135,0.0,10.0,71,0.00,,,0.00,0056,Weather View 32 v70,2013-07-04 22:10:00,
2013-07-04 18:20:00,79.5,69.6,30.16,WSW,248,0.0,10.0,72,0.00,,,0.00,0032,Weather View 32 v70,2013-07-04 22:20:00,
2013-07-04 18:30:00,79.1,69.6,30.16,SSW,203,0.0,8.0,73,0.00,,,0.00,0080,Weather View 32 v70,2013-07-04 22:30:00,
2013-07-04 18:35:00,78.8,69.4,30.16,WSW,248,0.0,8.0,73,0.00,,,0.00,0056,Weather View 32 v70,2013-07-04 22:35:00,
2013-07-04 18:40:00,78.6,69.2,30.16,WSW,248,3.0,8.0,73,0.00,,,0.00,0056,Weather View 32 v70,2013-07-04 22:40:00,
2013-07-04 18:50:00,78.2,68.8,30.16,WNW,293,0.0,10.0,73,0.00,,,0.00,0136,Weather View 32 v70,2013-07-04 22:50:00,
2013-07-04 18:55:00,78.0,69.0,30.16,WNW,293,0.0,10.0,74,0.00,,,0.00,0152,Weather View 32 v70,2013-07-04 22:55:00,
2013-07-04 19:01:00,77.9,68.9,30.16,West,270,3.0,10.0,74,0.00,,,0.00,0128,Weather View 32 v70,2013-07-04 23:01:00,
2013-07-04 19:10:00,77.6,69.0,30.16,WNW,293,0.0,10.0,75,0.00,,,0.00,0032,Weather View 32 v70,2013-07-04 23:10:00,
2013-07-04 19:20:00,77.4,68.8,30.15,West,270,0.0,14.0,75,0.00,,,0.00,0024,Weather View 32 v70,2013-07-04 23:20:00,
2013-07-04 19:25:00,77.1,68.6,30.16,SW,225,2.0,14.0,75,0.00,,,0.00,0024,Weather View 32 v70,2013-07-04 23:25:00,
2013-07-04 19:30:00,77.0,68.5,30.16,WSW,248,2.0,14.0,75,0.00,,,0.00,0008,Weather View 32 v70,2013-07-04 23:30:00,
2013-07-04 19:40:00,76.7,68.1,30.16,SW,225,0.0,14.0,75,0.00,,,0.00,0016,Weather View 32 v70,2013-07-04 23:40:00,
2013-07-04 19:45:00,76.6,68.4,30.16,WNW,293,0.0,14.0,76,0.00,,,0.00,0016,Weather View 32 v70,2013-07-04 23:45:00,
2013-07-04 19:50:00,76.4,68.2,30.16,West,270,0.0,14.0,76,0.00,,,0.00,0008,Weather View 32 v70,2013-07-04 23:50:00,
2013-07-04 19:55:00,76.2,68.1,30.16,WNW,293,0.0,14.0,76,0.00,,,0.00,0000,Weather View 32 v70,2013-07-04 23:55:00,
2013-07-04 20:00:00,76.1,68.0,30.16,WNW,293,0.0,14.0,76,0.00,,,0.00,0000,Weather View 32 v70,2013-07-05 00:00:00,
2013-07-04 20:05:00,75.9,67.8,30.17,WNW,293,6.0,14.0,76,0.00,,,0.00,0008,Weather View 32 v70,2013-07-05 00:05:00,
2013-07-04 20:10:00,75.9,67.8,30.16,WNW,293,0.0,14.0,76,0.00,,,0.00,0000,Weather View 32 v70,2013-07-05 00:10:00,
2013-07-04 20:20:00,75.6,67.4,30.16,West,270,3.0,10.0,76,0.00,,,0.00,0000,Weather View 32 v70,2013-07-05 00:20:00,
2013-07-04 20:25:00,75.3,67.2,30.16,NW,315,0.0,9.0,76,0.00,,,0.00,0000,Weather View 32 v70,2013-07-05 00:25:00,
2013-07-04 20:30:00,75.1,67.4,30.17,SSW,203,0.0,9.0,77,0.00,,,0.00,0000,Weather View 32 v70,2013-07-05 00:30:00,
2013-07-04 20:40:00,74.9,67.2,30.17,West,270,0.0,8.0,77,0.00,,,0.00,0000,Weather View 32 v70,2013-07-05 00:40:00,
2013-07-04 20:45:00,74.7,67.3,30.17,WNW,293,2.0,8.0,78,0.00,,,0.00,0000,Weather View 32 v70,2013-07-05 00:45:00,
2013-07-04 20:50:00,74.6,67.2,30.17,West,270,0.0,8.0,78,0.00,,,0.00,0000,Weather View 32 v70,2013-07-05 00:50:00,
2013-07-04 21:00:00,74.2,67.3,30.18,West,270,1.0,8.0,79,0.00,,,0.00,0000,Weather View 32 v70,2013-07-05 01:00:00,
2013-07-04 21:05:00,74.2,66.9,30.17,WNW,293,0.0,7.0,78,0.00,,,0.00,0008,Weather View 32 v70,2013-07-05 01:05:00,
2013-07-04 21:15:00,73.9,66.9,30.17,WSW,248,0.0,7.0,79,0.00,,,0.00,0000,Weather View 32 v70,2013-07-05 01:15:00,
2013-07-04 21:20:00,73.9,66.9,30.18,NW,315,0.0,7.0,79,0.00,,,0.00,0000,Weather View 32 v70,2013-07-05 01:20:00,
2013-07-04 21:30:00,73.8,66.8,30.18,West,270,0.0,7.0,79,0.00,,,0.00,0000,Weather View 32 v70,2013-07-05 01:30:00,
2013-07-04 21:35:00,73.7,67.1,30.18,WNW,293,0.0,7.0,80,0.00,,,0.00,0000,Weather View 32 v70,2013-07-05 01:35:00,
2013-07-04 21:45:00,73.5,67.0,30.19,West,270,0.0,7.0,80,0.00,,,0.00,0000,Weather View 32 v70,2013-07-05 01:45:00,
2013-07-04 21:50:00,73.4,66.8,30.18,WNW,293,0.0,7.0,80,0.00,,,0.00,0000,Weather View 32 v70,2013-07-05 01:50:00,
2013-07-04 21:55:00,73.3,66.8,30.18,WNW,293,0.0,7.0,80,0.00,,,0.00,0000,Weather View 32 v70,2013-07-05 01:55:00,
2013-07-04 22:02:00,73.3,66.8,30.18,WNW,293,0.0,6.0,80,0.00,,,0.00,0000,Weather View 32 v70,2013-07-05 02:02:00,
2013-07-04 22:10:00,73.2,66.6,30.17,West,270,0.0,7.0,80,0.00,,,0.00,0008,Weather View 32 v70,2013-07-05 02:10:00,
2013-07-04 22:15:00,73.2,66.6,30.18,WSW,248,4.0,7.0,80,0.00,,,0.00,0000,Weather View 32 v70,2013-07-05 02:15:00,
2013-07-04 22:25:00,73.2,67.0,30.18,West,270,0.0,7.0,81,0.00,,,0.00,0000,Weather View 32 v70,2013-07-05 02:25:00,
2013-07-04 22:30:00,73.1,66.5,30.18,WNW,293,2.0,7.0,80,0.00,,,0.00,0000,Weather View 32 v70,2013-07-05 02:30:00,
2013-07-04 22:35:00,73.2,67.0,30.18,West,270,0.0,8.0,81,0.00,,,0.00,0000,Weather View 32 v70,2013-07-05 02:35:00,
2013-07-04 22:45:00,73.1,66.9,30.18,West,270,2.0,8.0,81,0.00,,,0.00,0000,Weather View 32 v70,2013-07-05 02:45:00,
2013-07-04 22:50:00,73.1,66.9,30.18,West,270,5.0,10.0,81,0.00,,,0.00,0000,Weather View 32 v70,2013-07-05 02:50:00,
2013-07-04 22:55:00,73.2,67.0,30.18,WNW,293,0.0,21.0,81,0.00,,,0.00,0000,Weather View 32 v70,2013-07-05 02:55:00,
2013-07-04 23:00:00,73.1,66.9,30.18,WNW,293,0.0,21.0,81,0.00,,,0.00,0000,Weather View 32 v70,2013-07-05 03:00:00,
2013-07-04 23:05:00,73.1,66.9,30.17,NW,315,0.0,21.0,81,0.00,,,0.00,0000,Weather View 32 v70,2013-07-05 03:05:00,
2013-07-04 23:15:00,73.0,66.8,30.18,WNW,293,0.0,21.0,81,0.00,,,0.00,0000,Weather View 32 v70,2013-07-05 03:15:00,
2013-07-04 23:20:00,73.0,66.8,30.18,NW,315,0.0,21.0,81,0.00,,,0.00,0000,Weather View 32 v70,2013-07-05 03:20:00,
2013-07-04 23:25:00,72.9,66.7,30.18,West,270,0.0,21.0,81,0.00,,,0.00,0000,Weather View 32 v70,2013-07-05 03:25:00,
2013-07-04 23:30:00,72.9,66.7,30.18,West,270,0.0,21.0,81,0.00,,,0.00,0000,Weather View 32 v70,2013-07-05 03:30:00,
2013-07-04 23:40:00,72.6,66.8,30.18,WNW,293,0.0,21.0,82,0.00,,,0.00,0016,Weather View 32 v70,2013-07-05 03:40:00,
2013-07-04 23:45:00,72.6,66.8,30.17,West,270,0.0,21.0,82,0.00,,,0.00,0016,Weather View 32 v70,2013-07-05 03:45:00,
2013-07-04 23:55:00,72.5,66.7,30.18,WNW,293,0.0,8.0,82,0.00,,,0.00,0000,Weather View 32 v70,2013-07-05 03:55:00,